[[{"header":{"parameterUnit":"m.s-1","parameterCategory":1,"la1":30.2991,"la2":30.254,"lo1":-89.0895,"lo2":-89.0444,"dy":0.0017,"dx":0.0017,"nx":28,"ny":28,"refTime":"2024-05-03T03:00:00:Z","depth":0,"parameterNumber":2,"parameterNumberName":"U-component_of_WINDS"},"data":[0,0,0,0,0,0,0,0,0,0,0,0,0,0,0,0,0,0,0,0,0,0,0,0,0,0,0,0,0,0,0,0,0,0,0,0,0,0,0,0,0,0,0,0,0,0,0,0,0,0,0,0,0,0,0,0,0,0,-1.4977,-1.4977,0,-1.5015,-1.5015,-1.5016,-1.5001,-1.5,-1.4999,-1.4998,-1.504,-1.5042,-1.5044,0,0,0,0,0,0,0,0,0,0,0,0,0,-1.4896,-1.4897,-1.4977,-1.4977,-1.4978,-1.5015,-1.5015,-1.5016,-1.5001,-1.5,-1.4999,-1.4998,-1.5039,-1.5042,-1.5044,0,0,0,0,0,0,0,0,0,0,0,0,0,-1.4932,-1.4898,-1.4977,-1.4975,-1.4975,-1.5015,-1.5015,-1.5016,-1.5001,-1.5,-1.4998,-1.4997,-1.5039,-1.5042,-1.5044,-1.5089,0,0,-1.5053,-1.5055,0,0,0,0,0,0,0,0,-1.493,-1.4935,-1.4974,-1.4975,-1.4975,-1.5002,-1.5002,-1.5041,-1.5002,-1.4991,-1.4998,-1.4997,-1.5029,-1.5032,-1.5042,-1.5091,-1.5093,-1.5054,-1.5055,-1.5057,-1.5058,0,0,0,0,0,0,0,-1.4927,-1.4933,-1.4992,-1.4975,-1.4975,-1.4973,-1.4977,-1.5009,-1.5017,-1.4992,-1.4991,-1.4996,-1.5029,-1.504,-1.5043,-1.5094,-1.5054,-1.5056,-1.5058,-1.5059,-1.5184,-1.5186,0,0,0,0,0,0,-1.4924,-1.4931,-1.4991,-1.4993,-1.4949,-1.4976,-1.498,-1.4995,-1.5017,-1.5019,-1.4997,-1.4995,-1.5035,-1.504,-1.5045,-1.51,-1.5057,-1.5059,-1.5061,-1.5183,-1.5185,-1.5186,0,0,0,0,0,0,-1.4923,-1.493,-1.4989,-1.4962,-1.4969,-1.4979,-1.4995,-1.4996,-1.5007,-1.502,-1.5022,-1.5006,-1.5034,-1.5041,-1.5079,-1.5101,-1.5061,-1.5063,-1.5181,-1.5183,-1.5186,-1.521,0,0,0,0,0,0,-1.492,-1.4929,-1.4945,-1.4962,-1.4971,-1.5021,-1.4996,-1.4998,-1.5012,-1.501,-1.503,-1.5032,-1.5034,-1.5075,-1.5082,-1.5105,-1.5066,-1.5179,-1.5182,-1.5185,-1.5207,-1.5213,-1.5218,0,0,0,0,0,-1.4917,-1.4951,-1.4946,-1.4953,-1.4991,-1.5022,-1.5027,-1.5028,-1.5014,-1.5031,-1.504,-1.5031,-1.5098,-1.5079,-1.5087,-1.5111,-1.5178,-1.5181,-1.5185,-1.5205,-1.5212,-1.5218,0,0,0,0,0,0,-1.4936,-1.4953,-1.4948,-1.4987,-1.5003,-1.502,-1.5041,-1.5035,-1.5057,-1.5054,-1.5055,-1.506,-1.51,-1.5109,-1.5087,-1.5157,-1.5136,-1.5141,-1.5149,-1.5155,-1.5161,-1.5157,-1.5068,0,0,0,0,0,-1.4945,-1.4968,-1.4982,-1.5015,-1.5024,-1.5031,-1.5045,-1.5044,-1.5062,-1.5069,-1.508,-1.5098,-1.5124,-1.514,-1.5164,-1.5209,-1.5215,-1.523,-1.5236,-1.524,-1.5244,-1.5271,-1.5278,-1.5198,-1.5198,-1.5198,0,0,-1.4963,-1.4975,-1.4989,-1.5019,-1.5032,-1.5057,-1.5037,-1.5064,-1.5084,-1.5073,-1.511,-1.5119,-1.514,-1.5182,-1.5202,-1.5191,-1.5268,-1.5244,-1.5248,-1.525,-1.5275,-1.5283,-1.529,-1.52,-1.52,-1.52,0,0,-1.5009,-1.502,-1.5049,-1.5063,-1.5082,-1.5087,-1.5095,-1.5112,-1.5118,-1.5155,-1.5148,-1.5172,-1.5215,-1.5231,-1.5244,-1.5299,-1.5293,-1.5307,-1.5335,-1.536,-1.5367,-1.5372,-1.5393,-1.54,-1.5312,-1.5312,-1.5312,0,-1.5029,-1.5065,-1.5066,-1.5094,-1.5108,-1.51,-1.5132,-1.5145,-1.5172,-1.5182,-1.5171,-1.5226,-1.5239,-1.5286,-1.5299,-1.531,-1.532,-1.5304,-1.5366,-1.5371,-1.5377,-1.5396,-1.5404,-1.5313,-1.5313,-1.5313,-1.5313,0,-1.509,-1.5116,-1.5138,-1.5163,-1.518,-1.521,-1.5217,-1.5234,-1.5233,-1.524,-1.5279,-1.5295,-1.5323,-1.5334,-1.5334,-1.5382,-1.5375,-1.5365,-1.5344,-1.5386,-1.5404,-1.5412,-1.5316,-1.5315,-1.5315,-1.5314,0,0,-1.5147,-1.5173,-1.5182,-1.5194,-1.5216,-1.5236,-1.5267,-1.5294,-1.5309,-1.5329,-1.5356,-1.5394,-1.5385,-1.54,-1.5402,-1.5424,-1.5469,-1.5411,-1.5412,-1.5422,-1.5525,-1.5532,-1.5541,-1.5465,-1.5467,-1.5468,-1.5523,0,-1.5195,-1.5247,-1.5249,-1.5297,-1.5322,-1.5316,-1.5343,-1.5361,-1.5369,-1.5393,-1.5403,-1.543,-1.5415,-1.5425,-1.5447,-1.5458,-1.5489,-1.5455,-1.5491,-1.5492,-1.5486,-1.555,-1.5558,-1.5609,-1.553,-1.5531,-1.5532,0,-1.5257,-1.5278,-1.5328,-1.5348,-1.5359,-1.5383,-1.5409,-1.5431,-1.5452,-1.5457,-1.5475,-1.5474,-1.5508,-1.5486,-1.5534,-1.551,-1.5526,-1.5534,-1.5536,-1.5539,-1.5514,-1.5555,-1.5625,-1.5633,-1.5544,-1.5543,-1.5542,0,-1.5294,-1.5335,-1.5371,-1.5382,-1.5406,-1.5423,-1.5435,-1.5454,-1.5471,-1.5494,-1.5505,-1.5532,-1.5547,-1.557,-1.5577,-1.556,-1.5625,-1.5603,-1.563,-1.563,-1.5643,-1.5642,-1.5717,-1.5654,-1.5654,-1.5654,-1.5653,0,-1.5347,-1.5378,-1.5388,-1.541,-1.5446,-1.545,-1.5486,-1.5496,-1.5514,-1.5539,-1.5537,-1.5561,-1.5569,-1.5595,-1.5602,-1.5641,-1.5648,-1.5653,-1.5655,-1.5653,-1.5653,-1.5663,-1.566,-1.5656,-1.5655,-1.5655,-1.5654,0,-1.5394,-1.5401,-1.544,-1.5461,-1.5467,-1.5492,-1.551,-1.5533,-1.5541,-1.5574,-1.5582,-1.5596,-1.5627,-1.5636,-1.5674,-1.5678,-1.5725,-1.5723,-1.5717,-1.5717,-1.5744,-1.5742,-1.5828,-1.584,-1.5769,-1.5769,-1.577,0,-1.5427,-1.5451,-1.5474,-1.549,-1.5502,-1.5529,-1.5546,-1.5551,-1.557,-1.5597,-1.5616,-1.5647,-1.5672,-1.5722,-1.5737,-1.5766,-1.5765,-1.5794,-1.577,-1.5768,-1.5766,-1.5765,-1.5768,-1.5798,-1.5799,-1.5799,-1.58,0,-1.5485,-1.5488,-1.5512,-1.5538,-1.5559,-1.558,-1.56,-1.5614,-1.5624,-1.5645,-1.5676,-1.5695,-1.5734,-1.5766,-1.5796,-1.581,-1.5807,-1.5807,-1.5815,-1.5814,-1.581,-1.5814,-1.5729,-1.5805,-1.5805,-1.5804,-1.5804,-1.5804,-1.5527,-1.5548,-1.5568,-1.5596,-1.5612,-1.5631,-1.5654,-1.5665,-1.5691,-1.5723,-1.5725,-1.576,-1.5783,-1.5823,-1.5839,-1.5867,-1.5859,-1.587,-1.5873,-1.5876,-1.5879,-1.5806,-1.5873,-1.5873,-1.5873,-1.5872,-1.5872,0,-1.5585,-1.5598,-1.5623,-1.5652,-1.5674,-1.5669,-1.5693,-1.5712,-1.5742,-1.5763,-1.5788,-1.5825,-1.5856,-1.5874,-1.5905,-1.5925,-1.5925,-1.5933,-1.5932,-1.5935,-1.5883,-1.5874,-1.5933,-1.5933,-1.5933,-1.5933,-1.5933,-1.5933,-1.5618,-1.5655,-1.5661,-1.5707,-1.572,-1.5753,-1.5767,-1.5786,-1.5803,-1.5844,-1.5869,-1.5881,-1.5901,-1.5935,-1.5963,-1.5968,-1.598,-1.5989,-1.5993,-1.5945,-1.5938,-1.5933,-1.5923,-1.5992,-1.5992,-1.6043,-1.6043,-1.6044]},{"header":{"parameterUnit":"m.s-1","parameterCategory":1,"la1":30.2991,"la2":30.254,"lo1":-89.0895,"lo2":-89.0444,"dy":0.0017,"dx":0.0017,"nx":28,"ny":28,"refTime":"2024-05-03T03:00:00:Z","depth":0,"parameterNumber":3,"parameterNumberName":"V-component_of_WINDS"},"data":[0,0,0,0,0,0,0,0,0,0,0,0,0,0,0,0,0,0,0,0,0,0,0,0,0,0,0,0,0,0,0,0,0,0,0,0,0,0,0,0,0,0,0,0,0,0,0,0,0,0,0,0,0,0,0,0,0,0,3.0659,3.0659,0,3.0638,3.0638,3.0638,3.0634,3.0634,3.0634,3.0634,3.061,3.0609,3.0608,0,0,0,0,0,0,0,0,0,0,0,0,0,3.0694,3.0693,3.0659,3.0659,3.0659,3.0638,3.0638,3.0638,3.0634,3.0634,3.0634,3.0634,3.061,3.0609,3.0608,0,0,0,0,0,0,0,0,0,0,0,0,0,3.0676,3.0693,3.0659,3.0654,3.0654,3.0638,3.0638,3.0638,3.0634,3.0634,3.0634,3.0634,3.0611,3.0609,3.0608,3.0596,0,0,3.0605,3.0604,0,0,0,0,0,0,0,0,3.0677,3.0675,3.0655,3.0654,3.0654,3.0639,3.0641,3.0623,3.0634,3.0641,3.0634,3.0635,3.0619,3.0617,3.0613,3.0594,3.0593,3.0604,3.0604,3.0603,3.0603,0,0,0,0,0,0,0,3.0679,3.0676,3.0651,3.0655,3.0654,3.0653,3.065,3.0638,3.0629,3.064,3.064,3.0638,3.0619,3.0614,3.0612,3.0593,3.0604,3.0603,3.0603,3.0602,3.0565,3.0565,0,0,0,0,0,0,3.0681,3.0677,3.0651,3.065,3.0667,3.0652,3.0649,3.0643,3.0629,3.0627,3.0638,3.0638,3.0616,3.0614,3.0611,3.0597,3.0603,3.0602,3.0601,3.0565,3.0565,3.0565,0,0,0,0,0,0,3.0682,3.0679,3.0652,3.0664,3.066,3.0651,3.0644,3.0643,3.0638,3.0627,3.0625,3.0634,3.0616,3.0613,3.06,3.0596,3.0602,3.06,3.0566,3.0565,3.0565,3.0566,0,0,0,0,0,0,3.0683,3.0679,3.0674,3.0664,3.0659,3.0642,3.0644,3.0642,3.0636,3.0636,3.0623,3.0621,3.0616,3.0602,3.0599,3.0594,3.0599,3.0566,3.0565,3.0565,3.0567,3.0566,3.0566,0,0,0,0,0,3.0684,3.0675,3.0674,3.0671,3.0654,3.0641,3.0639,3.0634,3.0636,3.0631,3.0624,3.0622,3.0597,3.0601,3.0597,3.0592,3.0566,3.0565,3.0565,3.0567,3.0566,3.0566,0,0,0,0,0,0,3.0684,3.0673,3.0672,3.0659,3.0652,3.0641,3.0634,3.0633,3.0624,3.0624,3.0617,3.0614,3.0602,3.0595,3.06,3.058,3.0581,3.058,3.0584,3.0583,3.0583,3.0584,3.0598,0,0,0,0,0,3.0683,3.0674,3.0665,3.0654,3.0651,3.0643,3.0638,3.0635,3.0626,3.0622,3.0614,3.0605,3.0596,3.0589,3.0579,3.0566,3.0563,3.0561,3.056,3.056,3.0559,3.0552,3.0551,3.0563,3.0563,3.0563,0,0,3.0679,3.0672,3.0667,3.0654,3.0648,3.0639,3.064,3.0631,3.0624,3.062,3.0608,3.0602,3.0592,3.0579,3.0573,3.0574,3.0555,3.0559,3.0559,3.0558,3.0551,3.055,3.0549,3.0562,3.0562,3.0562,0,0,3.0669,3.0663,3.0654,3.0648,3.0639,3.0634,3.0632,3.0622,3.0619,3.0607,3.0604,3.0596,3.0579,3.0572,3.0566,3.0556,3.0553,3.0552,3.0549,3.0543,3.0542,3.0542,3.0538,3.0537,3.0551,3.0551,3.0551,0,3.0665,3.0653,3.0649,3.064,3.0635,3.0633,3.0624,3.0618,3.0605,3.0602,3.0603,3.0583,3.0575,3.0561,3.0559,3.0554,3.0552,3.0554,3.0543,3.0542,3.0541,3.0538,3.0537,3.0551,3.0551,3.0551,3.0551,0,3.065,3.0642,3.0635,3.0625,3.0619,3.061,3.0605,3.0599,3.0597,3.0592,3.0581,3.0572,3.0561,3.0558,3.0555,3.0544,3.0545,3.0544,3.0546,3.054,3.0537,3.0536,3.0551,3.0551,3.0551,3.0551,0,0,3.0638,3.0627,3.0625,3.0621,3.0612,3.0605,3.0596,3.0587,3.0582,3.0574,3.0567,3.0554,3.0554,3.0548,3.0544,3.0539,3.0532,3.0539,3.0539,3.0538,3.052,3.052,3.0519,3.0531,3.053,3.053,3.0521,0,3.0627,3.0612,3.0609,3.0596,3.0589,3.0587,3.058,3.0573,3.0569,3.0562,3.0557,3.0548,3.0549,3.0545,3.054,3.0534,3.0528,3.0534,3.0523,3.0523,3.0526,3.0517,3.0517,3.0509,3.052,3.052,3.052,0,3.0611,3.0605,3.0592,3.0585,3.0582,3.0575,3.0567,3.056,3.0553,3.055,3.0544,3.0542,3.0533,3.0535,3.0523,3.0528,3.0523,3.052,3.0519,3.0518,3.0521,3.0516,3.0506,3.0505,3.0517,3.0518,3.0518,0,3.0605,3.0592,3.0583,3.058,3.0571,3.0567,3.0563,3.0556,3.0551,3.0544,3.0541,3.0532,3.0528,3.0521,3.0517,3.0519,3.0505,3.0507,3.0502,3.0503,3.0499,3.0499,3.0489,3.0496,3.0496,3.0496,3.0496,0,3.0593,3.0585,3.0581,3.0575,3.0566,3.0563,3.0554,3.055,3.0545,3.0538,3.0536,3.053,3.0524,3.0517,3.0513,3.0504,3.0502,3.05,3.0499,3.05,3.05,3.0496,3.0497,3.0496,3.0496,3.0496,3.0496,0,3.0583,3.058,3.057,3.0564,3.0562,3.0556,3.055,3.0545,3.0541,3.0533,3.0531,3.0525,3.0517,3.0512,3.0501,3.0499,3.0489,3.0488,3.0492,3.0492,3.0488,3.0488,3.0474,3.0473,3.0481,3.0481,3.0481,0,3.0576,3.057,3.0564,3.056,3.0557,3.055,3.0546,3.0542,3.0538,3.053,3.0526,3.0518,3.0511,3.0498,3.0493,3.0485,3.0484,3.048,3.0483,3.0485,3.0485,3.0485,3.0485,3.0479,3.0479,3.0479,3.0479,0,3.0564,3.0563,3.0557,3.0551,3.0546,3.0541,3.0535,3.0532,3.0528,3.0523,3.0516,3.0511,3.0501,3.0493,3.0485,3.0481,3.0479,3.0479,3.0477,3.0478,3.0481,3.048,3.0491,3.0479,3.0479,3.0479,3.0479,3.0479,3.0555,3.0551,3.0546,3.054,3.0536,3.0531,3.0526,3.0523,3.0517,3.0509,3.0508,3.05,3.0494,3.0483,3.0479,3.0473,3.0473,3.0471,3.0471,3.047,3.047,3.0482,3.0471,3.0471,3.0471,3.0471,3.0471,0,3.0543,3.0541,3.0535,3.0529,3.0524,3.0524,3.0519,3.0515,3.0508,3.0503,3.0498,3.0489,3.0482,3.0477,3.047,3.0466,3.0465,3.0464,3.0464,3.0464,3.047,3.0472,3.0465,3.0465,3.0465,3.0465,3.0465,3.0465,3.0537,3.0529,3.0528,3.0519,3.0516,3.0509,3.0506,3.0502,3.0498,3.0489,3.0484,3.0481,3.0476,3.0469,3.0463,3.0461,3.0459,3.0458,3.0456,3.0462,3.0463,3.0464,3.0466,3.0457,3.0457,3.045,3.045,3.045]}]]